Location: Gleizolles
(44.4833°N, 6.7667°E)
Time: 09:41:30
(UTC+00:00)

Spot 2 Rocket - Pass Details

Date: 09 April 2020
Orbit: 757 x 772 km, 98.6° (Epoch: 04 June)

Event Time Altitude Azimuth Distance (km) Brightness Sun altitude
Exits shadow 20:22:15 52° 135° (SE) 955 3.6 -22.0°
Maximum altitude 20:23:23 70° 73° (ENE) 821 3.4 -22.2°
Drops below altitude 10° 20:28:29 10° 351° (N) 2,322 6.6 -22.9°
Sets 20:30:48 0° 349° (N) 3,251 7.5 -23.2°
